Regional Weather Roundup
Issued by NWS

Home | Current Version | Previous Version | Text Only | Print | Product List | Glossary Off
Versions: 1 2 3 4 5 6 7 8 9 10 11 12 13 14 15 16 17 18 19 20 21 22 23 24 25 26 27 28 29 30 31 32 33 34 35 36 37 38 39 40 41 42 43 44 45 46 47 48 49 50

000
ASUS43 KMPX 231110
RWRMN
WEATHER ROUNDUP FOR MINNESOTA
NATIONAL WEATHER SERVICE TWIN CITIES/CHANHASSEN MN
600 AM CDT THU OCT 23 2014


NOTE: "FAIR" INDICATES FEW OR NO CLOUDS BELOW 12,000 FEET WITH NO
SIGNIFICANT WEATHER AND/OR OBSTRUCTIONS TO VISIBILITY. N/A MEANS
CURRENT SKY AND/OR WEATHER CONDITIONS ARE NOT AVAILABLE.

MNZ060>063-068>070-231200-
   Twin Cities Metro

CITY           SKY/WX    TMP DP  RH WIND       PRES   REMARKS
TWIN CITIES    CLOUDY    52  49  89 S7        29.99F
ST PAUL        CLOUDY    51  49  92 SE7       30.01S
CRYSTAL        CLOUDY    53  50  89 S7        29.97S
BLAINE         CLOUDY    54  52  94 S5        29.98S
LAKEVILLE      CLOUDY    50  48  93 S8        30.00S
EDEN PRAIRIE   CLOUDY    53  50  89 S9        29.98S
SOUTH ST PAUL  CLOUDY    52  48  87 S7        30.00S
LAKE ELMO      CLOUDY    50  48  93 S9        30.01S
$$
MNZ001>005-007-008-013>017-022>024-027-028-231200-
   Northwest Minnesota

CITY           SKY/WX    TMP DP  RH WIND       PRES   REMARKS
BEMIDJI        MOCLDY    48  47  99 SW7       29.90R FOG
HALLOCK        CLEAR     43  41  93 S6        29.81R
ROSEAU         CLEAR     46  43  87 S7        29.82S
WARROAD        MOCLDY    48  45  87 S6        29.83S
THIEF RVR FALL CLOUDY    46  45  93 S7        29.86S
CROOKSTON      CLOUDY    46  45  93 S8        29.87S
FOSSTON        CLOUDY    45  45 100 S10       29.90R
DETROIT LAKES  CLEAR     46  46 100 S5        29.92S
MOORHEAD       CLEAR     43  43 100 S8        29.91S
PARK RAPIDS    CLOUDY    50  49  96 SW7       29.92R
MAHNOMEN       FAIR      45  45  97 S12       29.89S
$$
MNZ006-009>011-018-025>026-231200-
   North Central Minnesota

CITY           SKY/WX    TMP DP  RH WIND       PRES   REMARKS
BAUDETTE       CLOUDY    48  46  93 S7        29.85S
FLAG ISLAND    CLOUDY    50  48  93 S8        29.80S
INTL FALLS     CLOUDY    49  47  93 VRB6      29.89R
WASKISH        CLOUDY    50  48  93 CALM      29.88R
BIG FORK       CLOUDY    50  48  93 S7        29.90S FOG
LONGVILLE      CLOUDY    52  50  93 SW3       29.92S FOG
GRAND RAPIDS   CLOUDY    50  46  87 S7        29.93S
CRANE LAKE     CLOUDY    46  45  93 S6        29.93S
ORR            CLOUDY    46  43  87 SE5       29.89F
COOK           CLOUDY    46  45  93 S3        29.93S
WALKER         CLOUDY    49  48  95 SW6       29.91R
$$
MNZ012-019>021-037-231200-
   Northeast Minnesota

CITY           SKY/WX    TMP DP  RH WIND       PRES   REMARKS
DULUTH         LGT RAIN  48  44  86 S10       29.96S
ELY            CLOUDY    45  43  93 S6        29.94F
HIBBING        CLOUDY    48  45  89 S6        29.93F
EVELETH        LGT RAIN  45  43  93 CALM      29.95S
DULUTH HARBOR  RAIN      48  46  93 SW5       29.98S
TWO HARBORS    LGT RAIN  48  36  61 CALM      29.96S
SILVER BAY     LGT RAIN  46  43  87 CALM      29.96S
GRAND MARAIS     N/A     48  43  82 CALM      30.01F
G MARAIS ARPRT CLOUDY    43  37  81 SE6       29.99F
$$
MNZ029>031-032-039>041-046>048-054>057-064-231200-
   West Central Minnesota

CITY           SKY/WX    TMP DP  RH WIND       PRES   REMARKS
FERGUS FALLS   FOG       43  43 100 SE6       29.94S VSB 1/2
WHEATON        CLEAR     43  39  87 SW6       29.96R
MORRIS         FOG       43  41  93 SE6       29.94S VSB<1/4
ALEXANDRIA     FOG       48  47  96 SW7       29.95S VSB 1/2
ELBOW LAKE     FAIR      42  42 100 S7        29.93S FOG
WADENA         FOG       48  48 100 CALM      29.93R VSB 1/4
GLENWOOD       FOG       46  46 100 SW3       29.95S VSB<1/4
APPLETON       CLEAR     45  43  93 S3        29.95S FOG
BENSON         FOG       43  43 100 S5        29.96S VSB 1/4
ORTONVILLE     CLEAR     46  43  87 W6        29.95R
MADISON        CLEAR     48  46  93 W6        29.96R
WILLMAR        FOG       46  43  87 CALM      29.98S VSB 1/4
$$
MNZ033>034-036-042>043-049>051-058-059-231200-
   Central Minnesota

CITY           SKY/WX    TMP DP  RH WIND       PRES   REMARKS
ST CLOUD       CLOUDY    56  53  90 SW3       29.96S FOG
SAUK CENTRE    FOG       49  49 100 CALM      29.96R VSB 1/4
PAYNESVILLE    CLOUDY    48  49 100 CALM      29.97S FOG
AITKIN         HAZE      52  46  82 CALM      29.93R VSB 3/4
PINE RIVER     CLOUDY    52  52 100 SW6       29.97R FOG
BRAINERD       FOG       50  50 100 SW10      29.95R VSB 1/2
STAPLES        CLOUDY    50  50 100 S6        29.94R FOG
LONG PRAIRIE   FOG       48  46  93 S7        29.95S VSB 1/4
LITTLE FALLS   CLOUDY    52  50  93 SW5       29.96R FOG
LITCHFIELD     FOG       52  52 100 CALM      29.98R VSB 1/2
BUFFALO        CLOUDY    54  52  94 SW3       29.98S FOG
MAPLE LAKE     CLOUDY    55  55  98 SW6       29.98R
$$
MNZ037-044-045-052-053-231200-
   East Central Minnesota

CITY           SKY/WX    TMP DP  RH WIND       PRES   REMARKS
PRINCETON      FOG       54  52  94 S3        29.97S VSB 1
MORA           CLOUDY    48  46  93 CALM      29.98S
CAMBRIDGE      CLOUDY    54  46  76 S6        29.95S HAZE
RUSH CITY      CLOUDY    49  47  95 S5        29.98S
MOOSE LAKE     LGT RAIN  46  45  93 S6        29.95S
HINCKLEY       CLOUDY    48  48 100 CALM      29.97F
CLOQUET        DRIZZLE   46  45  93 S6        29.96S
MCGREGOR       CLOUDY    48  48 100 S5        29.95S
$$
MNZ071>073-080-081-089-090-097-098-231200-
   Southwest Minnesota

CITY           SKY/WX    TMP DP  RH WIND       PRES   REMARKS
MONTEVIDEO     CLEAR     46  46 100 SW5       29.97S
GRANITE FALLS  FOG       44  44  99 S6        29.98S VSB 1/2
CANBY          CLEAR     49  46  90 SW10      29.98R
MARSHALL       CLEAR     48  45  87 SW9       29.96S
REDWOOD FALLS  FOG       46  45  96 S7        29.98S VSB 1/2
OLIVIA         FOG       48  46  93 S5        29.97S VSB 1/4
PIPESTONE      FOG       48  48 100 CALM      30.00S VSB<1/4
WINDOM           N/A     52  50  93 SW3       30.01R FOG
WORTHINGTON    CLOUDY    52  50  93 W7        30.02S VSB 1/2
JACKSON        FOG       52  50  93 W7        30.01S VSB 3/4
TRACY          MOCLDY    49  49  97 SW10      29.99R FOG
SLAYTON        FOG       49  49 100 CALM      30.01R VSB 1/2
$$
MNZ065>067-074>077-082>085-091>093-231200-
   South Central Minnesota

CITY           SKY/WX    TMP DP  RH WIND       PRES   REMARKS
MANKATO        CLOUDY    54  46  76 S8        30.00S
NEW ULM        FOG       50  50 100 W5        29.99S VSB 1/2
ST JAMES       MOCLDY    54  52  94 SW5       30.01S
FAIRMONT       CLOUDY    54  48  82 SW5       30.00S
GLENCOE        MOCLDY    54  53  99 S3        29.98R FOG
FARIBAULT      CLOUDY    48  48 100 S3        30.02S FOG
OWATONNA       DRIZZLE   50  46  87 S9        30.01F
WASECA         CLOUDY    50  46  87 S8        30.03S FOG
ALBERT LEA     LGT RAIN  50  48  93 S10       30.02S
$$
MNZ078>079-086>088-094>096-231200-
   Southeast Minnesota

CITY           SKY/WX    TMP DP  RH WIND       PRES   REMARKS
ROCHESTER      LGT RAIN  48  45  89 S10       30.04S
STANTON        CLOUDY    51  48  90 S6        30.00S
DODGE CENTER   RAIN      48  46  93 S13       30.02S
WINONA         DRIZZLE   48  45  87 SE6       30.06F
AUSTIN         HVY RAIN  48  46  93 S7        30.03F
PRESTON        CLOUDY    47  44  90 S9        30.05F
$$
ABBREVIATIONS USED IN REMARKS
   TC - TEMPERATURES IN CELSIUS
  WCI - WIND CHILL INDEX
   HX - HEAT INDEX
  VSB - VISIBILITY
$$



USA.gov is the U.S. government's official web portal to all federal, state and local government web resources and services.